Orbital Elements at Epoch 2459200.5 (2020-Dec-17.0) TDB
Reference: JPL 11 (heliocentric ecliptic J2000)
Element | Value | Uncertainty (1-sigma) | Units |
e | .6622785490575213 | 0.00037901 | |
a | .9632335382529038 | 0.00025025 | au |
q | .3253046281352283 | 0.00028057 | au |
i | 5.311610354015357 | 0.0033865 | deg |
node | 312.8785525584331 | 0.00073888 | deg |
peri | 278.1878686760411 | 0.0071145 | deg |
M | 287.228867437183 | 0.053176 | deg |
tp | 2459270.299522815787 (2021-Feb-24.79952282) | 0.023804 | TDB |
period | 345.2993972849406 0.95 | 0.13456 0.0003684 | d yr |
n | 1.042573496596429 | 0.00040629 | deg/d |
Q | 1.60116244837058 | 0.00041598 | au |
|
| | Orbit Determination Parameters
Additional Information
|